This demonstration page uses our WeatherBlox Daily Observations layout. Learn more.

Left ArrowRight Arrow

Hourly Observations for July 8, 2021

Temp ( °F °C ) Dew Point ( °F °C ) Humidity (%) Winds ( mph kmh ) Pressure ( in mb ) Visibility ( mi km ) Precip ( " mm )
6:30 am 06:30 Cloudy 72 22 68 20 88 88 SSW 7 11 29.88 1012 10 16 N/A
6:50 am 06:50 Cloudy 72 22 68 20 88 88 S 7 11 29.88 1012 10 16 N/A
7:50 am 07:50 Cloudy 73 23 68 20 83 83 S 6 9 29.89 1012 10 16 N/A
8:50 am 08:50 Cloudy 73 23 70 21 89 89 SSW 8 13 29.90 1012 10 16 N/A
9:50 am 09:50 Cloudy 75 24 70 21 83 83 SSW 8 13 29.90 1012 10 16 N/A
10:59 am 10:59 Mostly Cloudy 79 26 72 22 79 79 S 9 15 29.88 1012 10 16 N/A
11:45 am 11:45 Mostly Cloudy 82 28 72 22 70 70 SSW 9 15 29.88 1012 10 16 N/A
12:45 pm 12:45 Cloudy 81 27 72 22 74 74 SSW 12 19 29.87 1011 10 16 N/A
1:45 pm 13:45 Cloudy 81 27 72 22 74 74 WSW 5 7 29.87 1011 10 16 N/A
2:25 pm 14:25 Cloudy with Light Rain 77 25 73 23 89 89 W 9 15 29.87 1012 3 5 N/A
2:39 pm 14:39 Cloudy with Light Rain 73 23 68 20 83 83 W 9 15 29.89 1012 1 2 N/A
2:45 pm 14:45 Cloudy with Light Rain 72 22 66 19 83 83 W 9 15 29.87 1012 1 2 N/A
2:59 pm 14:59 Mostly Cloudy 75 24 68 20 78 78 E 10 17 29.88 1012 8 13 N/A
3:45 pm 15:45 Cloudy with Light Rain 73 23 70 21 89 89 E 9 15 29.87 1011 7 11 N/A
4:07 pm 16:07 Cloudy with Thunderstorms 73 23 70 21 89 89 E 9 15 29.87 1011 7 11 N/A
4:45 pm 16:45 Cloudy 73 23 70 21 89 89 SSE 6 9 29.88 1012 7 11 N/A
5:46 pm 17:46 Mostly Cloudy 72 22 70 21 94 94 SW 5 7 29.87 1012 8 13 N/A
6:45 pm 18:45 Mostly Cloudy 72 22 68 20 88 88 SSW 7 11 29.84 1010 10 16 N/A
7:45 pm 19:45 Mostly Cloudy 73 23 70 21 89 89 S 5 7 29.87 1011 10 16 N/A
8:50 pm 20:50 Mostly Cloudy 73 23 72 22 94 94 SSE 5 7 29.89 1012 10 16 N/A
9:50 pm 21:50 Mostly Cloudy 72 22 70 21 94 94 S 5 7 29.89 1012 10 16 N/A

Powered by AerisWeather